This is the latest recevied weather packets stored in our database for station/object KC9DRE. If no packets are shown the sender has not sent any weather packets the latest 10 day(s).
| Time | Temp. | Humidity | Pressure | Rain* | Wind** | Luminosity | Snow |
|---|---|---|---|---|---|---|---|
| 1778176973 | 16.67° C | 39% | 1015.5 hPa | 0 mm | - | 873 W/m² | - |
| 1778176668 | 16.67° C | 38% | 1015.7 hPa | 0 mm | - | 879 W/m² | - |
| 1778176365 | 16.67° C | 35% | 1015.8 hPa | 0 mm | - | 880 W/m² | - |
| 1778176063 | 17.78° C | 34% | 1015.8 hPa | 0 mm | - | 879 W/m² | - |
| 1778175761 | 17.78° C | 36% | 1016.1 hPa | 0 mm | - | 880 W/m² | - |
| 1778175458 | 17.22° C | 39% | 1016.2 hPa | 0 mm | - | 880 W/m² | - |
| 1778175155 | 16.67° C | 40% | 1016.3 hPa | 0 mm | - | 879 W/m² | - |
| 1778174851 | 15.56° C | 41% | 1016.4 hPa | 0 mm | - | 879 W/m² | - |
| 1778174549 | 16.11° C | 35% | 1016.4 hPa | 0 mm | - | 879 W/m² | - |
| 1778174248 | 16.67° C | 35% | 1016.2 hPa | 0 mm | - | 879 W/m² | - |
| 1778173946 | 16.67° C | 38% | 1016.3 hPa | 0 mm | - | 880 W/m² | - |
| 1778173643 | 16.67° C | 40% | 1016.3 hPa | 0 mm | - | 880 W/m² | - |
| 1778173340 | 16.67° C | 38% | 1016.6 hPa | 0 mm | - | 880 W/m² | - |
| 1778173035 | 16.11° C | 41% | 1016.6 hPa | 0 mm | - | 880 W/m² | - |
| 1778172732 | 15.56° C | 36% | 1016.7 hPa | 0 mm | - | 879 W/m² | - |
| 1778172428 | 15.56° C | 41% | 1016.6 hPa | 0 mm | - | 876 W/m² | - |
| 1778172125 | 15.56° C | 38% | 1016.8 hPa | 0 mm | - | 874 W/m² | - |
| 1778171822 | 15.56° C | 38% | 1016.7 hPa | 0 mm | - | 861 W/m² | - |
| 1778171520 | 15.56° C | 34% | 1016.8 hPa | 0 mm | - | 861 W/m² | - |
| 1778171215 | 15.56° C | 35% | 1017 hPa | 0 mm | - | 855 W/m² | - |
| 1778170912 | 15.56° C | 35% | 1017 hPa | 0 mm | - | 851 W/m² | - |
| 1778170608 | 15.56° C | 36% | 1017 hPa | 0 mm | - | 840 W/m² | - |
| 1778170305 | 15.56° C | 39% | 1017 hPa | 0 mm | - | 830 W/m² | - |
| 1778170001 | 15° C | 37% | 1017 hPa | 0 mm | - | 827 W/m² | - |
| 1778169698 | 16.11° C | 35% | 1016.9 hPa | 0 mm | - | 818 W/m² | - |
* Rain latest hour (hover to see other rain measurements)
** Current wind speed in m/s (hover to see current wind gust speed)